Location: Fort Worth, Tx
(32.7431°N, 97.3695°W)
Time: 16:09:56
(UTC-04:00)

Transit 4A - Pass Details

Date: 03 March 2024
Orbit: 871 x 972 km, 66.8° (Epoch: 21 April)

Event Time Altitude Azimuth Distance (km) Brightness Sun altitude
Rises 01:26:41 0° 225° (SW) 3,613 - -63.6°
Reaches altitude 10° 01:29:25 10° 233° (SW) 2,658 - -63.7°
Maximum altitude 01:35:11 40° 301° (WNW) 1,350 - -63.8°
Drops below altitude 10° 01:40:49 10° 10° (N) 2,603 - -63.9°
Sets 01:43:29 0° 18° (NNE) 3,532 - -63.9°
